| time (UTC) | temp C | wind direction | speed KPH | gust KPH | rain 1hr cm | rain 24hr cm | rain mn cm | humidity % | barometer mb |
| 20260510205057 | 23 | 32 | 3.2 | 11.3 | 0.00 | 0.00 | 0.00 | 78 | 1015.2 |
| 20260510204607 | 23 | 210 | 1.6 | 11.3 | 0.00 | 0.00 | 0.00 | 77 | 1015.1 |
| 20260510204055 | 24 | 269 | 1.6 | 11.3 | 0.00 | 0.00 | 0.00 | 76 | 1014.5 |
| 20260510203556 | 25 | 37 | 3.2 | 11.3 | 0.00 | 0.00 | 0.00 | 74 | 1014.9 |
| 20260510203102 | 25 | 196 | 4.8 | 11.3 | 0.00 | 0.00 | 0.00 | 74 | 1014.9 |
| 20260510202556 | 25 | 222 | 1.6 | 12.9 | 0.00 | 0.00 | 0.00 | 75 | 1014.9 |
| 20260510202056 | 26 | 191 | 1.6 | 12.9 | 0.00 | 0.00 | 0.00 | 74 | 1015.0 |
| 20260510201604 | 25 | 18 | 3.2 | 12.9 | 0.00 | 0.00 | 0.00 | 76 | 1015.2 |
| 20260510201056 | 24 | 13 | 3.2 | 11.3 | 0.00 | 0.00 | 0.00 | 76 | 1015.1 |
| 20260510200556 | 24 | 213 | 3.2 | 12.9 | 0.00 | 0.00 | 0.00 | 74 | 1015.3 |
| 20260510200057 | 25 | 237 | 3.2 | 12.9 | 0.00 | 0.00 | 0.00 | 74 | 1015.1 |
| 20260510195556 | 24 | 228 | 3.2 | 11.3 | 0.00 | 0.00 | 0.00 | 74 | 1015.2 |
| 20260510195056 | 25 | 63 | 4.8 | 11.3 | 0.00 | 0.00 | 0.00 | 71 | 1014.9 |
| 20260510194554 | 25 | 218 | 1.6 | 11.3 | 0.00 | 0.00 | 0.00 | 72 | 1015.2 |
| 20260510194056 | 25 | 77 | 3.2 | 11.3 | 0.00 | 0.00 | 0.00 | 70 | 1015.3 |
| 20260510193556 | 25 | 44 | 1.6 | 11.3 | 0.00 | 0.00 | 0.00 | 72 | 1015.3 |
| 20260510193104 | 26 | 257 | 3.2 | 11.3 | 0.00 | 0.00 | 0.00 | 69 | 1015.3 |
| 20260510192557 | 25 | 175 | 3.2 | 11.3 | 0.00 | 0.00 | 0.00 | 72 | 1015.2 |
| 20260510192056 | 25 | 273 | 3.2 | 11.3 | 0.00 | 0.00 | 0.00 | 72 | 1015.1 |
| 20260510191559 | 26 | 212 | 1.6 | 8.0 | 0.00 | 0.00 | 0.00 | 72 | 1015.1 |
| 20260510191057 | 25 | 201 | 1.6 | 16.1 | 0.00 | 0.00 | 0.00 | 73 | 1015.0 |
| 20260510190556 | 26 | 102 | 3.2 | 16.1 | 0.00 | 0.00 | 0.00 | 71 | 1015.0 |
| 20260510185556 | 28 | 188 | 0.0 | 4.8 | 0.00 | 0.00 | 0.00 | 73 | 1014.9 |
| 20260510185057 | 27 | 120 | 1.6 | 8.0 | 0.00 | 0.00 | 0.00 | 74 | 1014.6 |
| 20260510184553 | 27 | 0 | 1.6 | 8.0 | 0.00 | 0.00 | 0.00 | 74 | 1014.8 |
| 20260510184056 | 27 | 181 | 0.0 | 6.4 | 0.00 | 0.00 | 0.00 | 74 | 1014.9 |
| 20260510183557 | 27 | 0 | 1.6 | 6.4 | 0.00 | 0.00 | 0.00 | 74 | 1014.7 |
| 20260510183055 | 27 | 151 | 0.0 | 4.8 | 0.00 | 0.00 | 0.00 | 75 | 1014.8 |
| 20260510182554 | 27 | 0 | 0.0 | 4.8 | 0.00 | 0.00 | 0.00 | 75 | 1014.7 |
| 20260510182057 | 27 | 0 | 0.0 | 4.8 | 0.00 | 0.00 | 0.00 | 75 | 1014.8 |
| 20260510181554 | 27 | 0 | 1.6 | 3.2 | 0.00 | 0.00 | 0.00 | 74 | 1014.9 |
| 20260510181103 | 27 | 0 | 0.0 | 3.2 | 0.00 | 0.00 | 0.00 | 75 | 1014.8 |
| 20260510180556 | 27 | 0 | 0.0 | 6.4 | 0.00 | 0.00 | 0.00 | 74 | 1014.9 |
| 20260510180058 | 27 | 0 | 0.0 | 6.4 | 0.00 | 0.00 | 0.00 | 75 | 1015.0 |
| 20260510175555 | 27 | 13 | 1.6 | 6.4 | 0.00 | 0.00 | 0.00 | 73 | 1015.1 |
| 20260510175053 | 27 | 325 | 0.0 | 6.4 | 0.00 | 0.00 | 0.00 | 75 | 1015.0 |
| 20260510174556 | 27 | 213 | 0.0 | 6.4 | 0.00 | 0.00 | 0.00 | 74 | 1015.0 |
| 20260510174055 | 27 | 318 | 0.0 | 4.8 | 0.00 | 0.00 | 0.00 | 75 | 1015.0 |
| 20260510173556 | 27 | 198 | 0.0 | 4.8 | 0.00 | 0.00 | 0.00 | 73 | 1015.0 |
| 20260510173111 | 27 | 257 | 1.6 | 4.8 | 0.00 | 0.00 | 0.00 | 72 | 1015.0 |
| 20260510172558 | 28 | 0 | 1.6 | 8.0 | 0.00 | 0.00 | 0.00 | 71 | 1014.7 |
| 20260510172057 | 28 | 250 | 0.0 | 9.7 | 0.00 | 0.00 | 0.00 | 73 | 1014.7 |
| 20260510171557 | 27 | 203 | 1.6 | 9.7 | 0.00 | 0.00 | 0.00 | 71 | 1014.6 |
| 20260510171056 | 27 | 183 | 1.6 | 9.7 | 0.00 | 0.00 | 0.00 | 72 | 1014.6 |
| 20260510170556 | 27 | 38 | 3.2 | 9.7 | 0.00 | 0.00 | 0.00 | 73 | 1014.4 |
| 20260510170054 | 27 | 232 | 1.6 | 9.7 | 0.00 | 0.00 | 0.00 | 75 | 1014.3 |
| 20260510165554 | 27 | 61 | 1.6 | 9.7 | 0.00 | 0.00 | 0.00 | 75 | 1014.3 |
| 20260510165053 | 27 | 46 | 1.6 | 11.3 | 0.00 | 0.00 | 0.00 | 74 | 1014.1 |
| 20260510164613 | 26 | 128 | 3.2 | 11.3 | 0.00 | 0.00 | 0.00 | 76 | 1013.8 |
| 20260510164054 | 27 | 98 | 1.6 | 11.3 | 0.00 | 0.00 | 0.00 | 76 | 1013.8 |
| 20260510163555 | 27 | 107 | 3.2 | 11.3 | 0.00 | 0.00 | 0.00 | 75 | 1013.6 |
| 20260510163103 | 26 | 57 | 3.2 | 14.5 | 0.00 | 0.00 | 0.00 | 76 | 1013.6 |
| 20260510162557 | 26 | 76 | 3.2 | 14.5 | 0.00 | 0.00 | 0.00 | 77 | 1013.5 |
| 20260510162057 | 26 | 206 | 4.8 | 14.5 | 0.00 | 0.00 | 0.00 | 76 | 1013.4 |
| 20260510161601 | 26 | 121 | 4.8 | 14.5 | 0.00 | 0.00 | 0.00 | 76 | 1013.5 |
| 20260510161056 | 26 | 53 | 3.2 | 14.5 | 0.00 | 0.00 | 0.00 | 77 | 1013.6 |
| 20260510160555 | 26 | 50 | 1.6 | 12.9 | 0.00 | 0.00 | 0.00 | 76 | 1013.7 |
| 20260510160059 | 26 | 344 | 3.2 | 12.9 | 0.00 | 0.00 | 0.00 | 78 | 1013.6 |
| 20260510155554 | 25 | 74 | 3.2 | 11.3 | 0.00 | 0.00 | 0.00 | 79 | 1013.6 |
| 20260510155055 | 25 | 76 | 1.6 | 20.9 | 0.00 | 0.00 | 0.00 | 80 | 1013.7 |
| 20260510154601 | 24 | 140 | 3.2 | 20.9 | 0.00 | 0.00 | 0.00 | 80 | 1013.6 |
| 20260510154055 | 24 | 121 | 1.6 | 8.0 | 0.00 | 0.00 | 0.00 | 81 | 1013.9 |
| 20260510153555 | 24 | 190 | 1.6 | 9.7 | 0.00 | 0.00 | 0.00 | 80 | 1014.1 |
| 20260510153100 | 24 | 66 | 3.2 | 9.7 | 0.00 | 0.00 | 0.00 | 80 | 1014.1 |
| 20260510152558 | 25 | 159 | 1.6 | 9.7 | 0.00 | 0.00 | 0.00 | 80 | 1014.1 |
| 20260510152056 | 24 | 207 | 3.2 | 9.7 | 0.00 | 0.00 | 0.00 | 80 | 1014.1 |
| 20260510151611 | 23 | 190 | 1.6 | 12.9 | 0.00 | 0.00 | 0.00 | 81 | 1014.1 |
| 20260510151100 | 23 | 313 | 4.8 | 14.5 | 0.00 | 0.00 | 0.00 | 81 | 1014.1 |
| 20260510150557 | 23 | 106 | 3.2 | 14.5 | 0.00 | 0.00 | 0.00 | 82 | 1014.2 |
| 20260510150105 | 23 | 61 | 1.6 | 16.1 | 0.00 | 0.00 | 0.00 | 82 | 1014.2 |
| 20260510145556 | 23 | 184 | 4.8 | 16.1 | 0.00 | 0.00 | 0.00 | 81 | 1014.0 |
| 20260510145056 | 23 | 192 | 3.2 | 11.3 | 0.00 | 0.00 | 0.00 | 81 | 1014.1 |
| 20260510144604 | 23 | 209 | 1.6 | 11.3 | 0.00 | 0.00 | 0.00 | 81 | 1014.2 |
| 20260510144056 | 23 | 178 | 1.6 | 14.5 | 0.00 | 0.00 | 0.00 | 81 | 1014.1 |
| 20260510143556 | 23 | 22 | 3.2 | 14.5 | 0.00 | 0.00 | 0.00 | 81 | 1014.2 |
| 20260510143057 | 22 | 269 | 1.6 | 11.3 | 0.00 | 0.00 | 0.00 | 81 | 1014.4 |
| 20260510142556 | 22 | 132 | 3.2 | 14.5 | 0.00 | 0.00 | 0.00 | 81 | 1014.7 |
| 20260510142056 | 22 | 161 | 3.2 | 14.5 | 0.00 | 0.00 | 0.00 | 81 | 1014.6 |
| 20260510141601 | 22 | 213 | 3.2 | 11.3 | 0.00 | 0.00 | 0.00 | 82 | 1014.3 |
| 20260510141056 | 22 | 171 | 1.6 | 11.3 | 0.00 | 0.00 | 0.00 | 82 | 1014.4 |
| 20260510140559 | 22 | 234 | 3.2 | 11.3 | 0.00 | 0.00 | 0.00 | 81 | 1014.2 |
| 20260510140100 | 23 | 0 | 3.2 | 11.3 | 0.00 | 0.00 | 0.00 | 81 | 1014.5 |
| 20260510135556 | 23 | 153 | 1.6 | 11.3 | 0.00 | 0.00 | 0.00 | 81 | 1014.4 |
| 20260510135056 | 22 | 63 | 1.6 | 8.0 | 0.00 | 0.00 | 0.00 | 82 | 1014.3 |
| 20260510134556 | 22 | 193 | 1.6 | 8.0 | 0.00 | 0.00 | 0.00 | 82 | 1014.3 |
| 20260510134055 | 22 | 144 | 1.6 | 16.1 | 0.00 | 0.00 | 0.00 | 83 | 1014.3 |
| 20260510133557 | 22 | 142 | 3.2 | 16.1 | 0.00 | 0.00 | 0.00 | 84 | 1014.4 |
| 20260510133055 | 21 | 189 | 1.6 | 12.9 | 0.00 | 0.00 | 0.00 | 85 | 1014.4 |
| 20260510132555 | 21 | 138 | 0.0 | 9.7 | 0.00 | 0.00 | 0.00 | 85 | 1014.5 |
| 20260510132058 | 21 | 159 | 3.2 | 16.1 | 0.00 | 0.00 | 0.00 | 86 | 1014.4 |
| 20260510131557 | 21 | 223 | 3.2 | 16.1 | 0.00 | 0.00 | 0.00 | 86 | 1014.2 |
| 20260510131056 | 21 | 195 | 1.6 | 8.0 | 0.00 | 0.00 | 0.00 | 86 | 1014.1 |
| 20260510130556 | 21 | 213 | 0.0 | 8.0 | 0.00 | 0.00 | 0.00 | 87 | 1013.9 |
| 20260510130054 | 21 | 162 | 1.6 | 11.3 | 0.00 | 0.00 | 0.00 | 88 | 1014.0 |
| 20260510125555 | 21 | 198 | 3.2 | 12.9 | 0.00 | 0.00 | 0.00 | 88 | 1014.0 |
| 20260510125056 | 22 | 180 | 3.2 | 12.9 | 0.00 | 0.00 | 0.00 | 89 | 1013.9 |
| 20260510124608 | 22 | 270 | 3.2 | 14.5 | 0.00 | 0.00 | 0.00 | 89 | 1013.8 |
| 20260510124056 | 22 | 217 | 1.6 | 14.5 | 0.00 | 0.00 | 0.00 | 89 | 1013.7 |
| 20260510123556 | 22 | 216 | 1.6 | 8.0 | 0.00 | 0.00 | 0.00 | 89 | 1013.6 |
| 20260510123055 | 22 | 266 | 0.0 | 11.3 | 0.00 | 0.00 | 0.00 | 89 | 1013.4 |
| 20260510122555 | 21 | 188 | 1.6 | 11.3 | 0.00 | 0.00 | 0.00 | 89 | 1013.3 |
| 20260510122054 | 21 | 154 | 1.6 | 11.3 | 0.00 | 0.00 | 0.00 | 89 | 1013.1 |
| 20260510121557 | 21 | 184 | 0.0 | 8.0 | 0.00 | 0.00 | 0.00 | 89 | 1013.1 |
| 20260510121055 | 21 | 154 | 1.6 | 9.7 | 0.00 | 0.00 | 0.00 | 89 | 1013.2 |
| 20260510120555 | 21 | 117 | 1.6 | 9.7 | 0.00 | 0.00 | 0.00 | 89 | 1013.0 |
| 20260510120059 | 21 | 210 | 1.6 | 8.0 | 0.00 | 0.00 | 0.00 | 89 | 1013.0 |
| 20260510115554 | 21 | 190 | 0.0 | 8.0 | 0.00 | 0.00 | 0.00 | 89 | 1012.9 |
| 20260510115054 | 21 | 0 | 1.6 | 8.0 | 0.00 | 0.00 | 0.00 | 89 | 1012.8 |
| 20260510114606 | 21 | 0 | 1.6 | 8.0 | 0.00 | 0.00 | 0.00 | 89 | 1013.0 |
| 20260510114055 | 21 | 185 | 0.0 | 8.0 | 0.00 | 0.00 | 0.00 | 89 | 1012.9 |
| 20260510113555 | 21 | 146 | 1.6 | 8.0 | 0.00 | 0.00 | 0.00 | 89 | 1012.7 |
| 20260510113059 | 21 | 0 | 0.0 | 6.4 | 0.00 | 0.00 | 0.00 | 89 | 1012.5 |
| 20260510112556 | 21 | 137 | 1.6 | 6.4 | 0.00 | 0.00 | 0.00 | 89 | 1012.5 |
| 20260510112055 | 21 | 143 | 0.0 | 6.4 | 0.00 | 0.00 | 0.00 | 89 | 1012.4 |
| 20260510111554 | 21 | 0 | 1.6 | 9.7 | 0.00 | 0.00 | 0.00 | 88 | 1012.6 |
| 20260510111054 | 21 | 0 | 1.6 | 9.7 | 0.00 | 0.00 | 0.00 | 88 | 1012.5 |
| 20260510110554 | 21 | 0 | 3.2 | 9.7 | 0.00 | 0.00 | 0.00 | 88 | 1012.4 |
| 20260510110056 | 21 | 159 | 1.6 | 8.0 | 0.00 | 0.00 | 0.00 | 88 | 1012.4 |
| 20260510105555 | 21 | 0 | 0.0 | 8.0 | 0.00 | 0.00 | 0.00 | 88 | 1012.3 |
| 20260510105058 | 21 | 0 | 1.6 | 8.0 | 0.00 | 0.00 | 0.00 | 88 | 1012.3 |
| 20260510104608 | 21 | 219 | 0.0 | 3.2 | 0.00 | 0.00 | 0.00 | 88 | 1012.2 |
| 20260510104058 | 21 | 0 | 0.0 | 4.8 | 0.00 | 0.00 | 0.00 | 88 | 1012.1 |
| 20260510103556 | 21 | 0 | 0.0 | 4.8 | 0.00 | 0.00 | 0.00 | 88 | 1011.9 |
| 20260510103055 | 21 | 0 | 0.0 | 3.2 | 0.00 | 0.00 | 0.00 | 88 | 1011.8 |
| 20260510102555 | 21 | 217 | 0.0 | 6.4 | 0.00 | 0.00 | 0.00 | 88 | 1011.8 |
| 20260510102054 | 21 | 0 | 0.0 | 6.4 | 0.00 | 0.00 | 0.00 | 88 | 1011.6 |
| 20260510101557 | 21 | 0 | 0.0 | 6.4 | 0.00 | 0.00 | 0.00 | 88 | 1011.5 |
| 20260510101055 | 21 | 0 | 0.0 | 4.8 | 0.00 | 0.00 | 0.00 | 88 | 1011.4 |
| 20260510100555 | 21 | 198 | 0.0 | 3.2 | 0.00 | 0.00 | 0.00 | 88 | 1011.3 |
| 20260510100058 | 21 | 217 | 0.0 | 3.2 | 0.00 | 0.00 | 0.00 | 88 | 1011.2 |
| 20260510095555 | 21 | 0 | 0.0 | 3.2 | 0.00 | 0.00 | 0.00 | 88 | 1011.1 |
| 20260510095055 | 21 | 246 | 0.0 | 3.2 | 0.00 | 0.00 | 0.00 | 88 | 1011.1 |
| 20260510094600 | 21 | 0 | 0.0 | 3.2 | 0.00 | 0.00 | 0.00 | 88 | 1011.0 |
| 20260510094056 | 21 | 0 | 0.0 | 6.4 | 0.00 | 0.00 | 0.00 | 89 | 1011.1 |
| 20260510093554 | 21 | 0 | 0.0 | 6.4 | 0.00 | 0.00 | 0.00 | 89 | 1010.9 |
| 20260510093057 | 21 | 240 | 0.0 | 1.6 | 0.00 | 0.00 | 0.00 | 88 | 1011.0 |
| 20260510092555 | 21 | 0 | 0.0 | 1.6 | 0.00 | 0.00 | 0.00 | 89 | 1010.8 |
| 20260510092058 | 21 | 0 | 0.0 | 0.0 | 0.00 | 0.00 | 0.00 | 88 | 1010.8 |
| 20260510091554 | 21 | 0 | 0.0 | 0.0 | 0.00 | 0.00 | 0.00 | 89 | 1010.6 |
| 20260510091054 | 21 | 0 | 0.0 | 0.0 | 0.00 | 0.00 | 0.00 | 88 | 1010.7 |
| 20260510090554 | 21 | 0 | 0.0 | 0.0 | 0.00 | 0.00 | 0.00 | 88 | 1010.6 |
| 20260510090056 | 21 | 0 | 0.0 | 0.0 | 0.00 | 0.00 | 0.00 | 88 | 1010.4 |
| 20260510085553 | 21 | 0 | 0.0 | 0.0 | 0.00 | 0.00 | 0.00 | 87 | 1010.1 |
| 20260510085054 | 21 | 0 | 0.0 | 0.0 | 0.00 | 0.00 | 0.00 | 86 | 1010.0 |
| 20260510084559 | 21 | 0 | 0.0 | 0.0 | 0.00 | 0.00 | 0.00 | 86 | 1009.8 |
| 20260510084055 | 21 | 0 | 0.0 | 1.6 | 0.00 | 0.00 | 0.00 | 86 | 1009.7 |
| 20260510083555 | 22 | 0 | 0.0 | 1.6 | 0.00 | 0.00 | 0.00 | 85 | 1009.8 |
| 20260510083101 | 22 | 0 | 0.0 | 1.6 | 0.00 | 0.00 | 0.00 | 86 | 1009.8 |
| 20260510082554 | 22 | 0 | 0.0 | 1.6 | 0.00 | 0.00 | 0.00 | 86 | 1009.6 |
| 20260510082054 | 22 | 0 | 0.0 | 1.6 | 0.00 | 0.00 | 0.00 | 86 | 1009.7 |
| 20260510081557 | 22 | 0 | 0.0 | 1.6 | 0.00 | 0.00 | 0.00 | 87 | 1009.9 |
| 20260510081054 | 22 | 0 | 0.0 | 1.6 | 0.00 | 0.00 | 0.00 | 87 | 1009.7 |
| 20260510080554 | 22 | 0 | 0.0 | 1.6 | 0.00 | 0.00 | 0.00 | 87 | 1009.8 |
| 20260510080059 | 22 | 88 | 0.0 | 1.6 | 0.00 | 0.00 | 0.00 | 87 | 1009.6 |
| 20260510075554 | 22 | 0 | 0.0 | 3.2 | 0.00 | 0.00 | 0.00 | 86 | 1009.8 |
| 20260510075058 | 22 | 0 | 0.0 | 4.8 | 0.00 | 0.00 | 0.00 | 86 | 1009.8 |
| 20260510074624 | 22 | 0 | 0.0 | 4.8 | 0.00 | 0.00 | 0.00 | 86 | 1009.8 |
| 20260510074053 | 22 | 0 | 0.0 | 3.2 | 0.00 | 0.00 | 0.00 | 85 | 1009.6 |
| 20260510073554 | 22 | 163 | 0.0 | 3.2 | 0.00 | 0.00 | 0.00 | 86 | 1009.6 |
| 20260510073058 | 22 | 0 | 0.0 | 3.2 | 0.00 | 0.00 | 0.00 | 86 | 1009.7 |
| 20260510072555 | 21 | 0 | 0.0 | 3.2 | 0.00 | 0.00 | 0.00 | 87 | 1009.8 |
| 20260510072058 | 21 | 0 | 0.0 | 0.0 | 0.00 | 0.00 | 0.00 | 87 | 1010.1 |
| 20260510071601 | 21 | 0 | 0.0 | 0.0 | 0.00 | 0.00 | 0.00 | 86 | 1010.1 |
| 20260510071058 | 21 | 0 | 0.0 | 0.0 | 0.00 | 0.00 | 0.00 | 85 | 1010.0 |
| 20260510070554 | 21 | 0 | 0.0 | 0.0 | 0.00 | 0.00 | 0.00 | 85 | 1009.6 |
| 20260510070057 | 21 | 0 | 0.0 | 0.0 | 0.00 | 0.00 | 0.00 | 84 | 1009.4 |
| 20260510065557 | 21 | 0 | 0.0 | 0.0 | 0.00 | 0.00 | 0.00 | 84 | 1009.1 |
| 20260510065055 | 21 | 0 | 0.0 | 0.0 | 0.00 | 0.00 | 0.00 | 83 | 1009.3 |
| 20260510064609 | 22 | 0 | 0.0 | 1.6 | 0.00 | 0.00 | 0.00 | 82 | 1009.3 |
| 20260510064054 | 22 | 0 | 0.0 | 1.6 | 0.00 | 0.00 | 0.00 | 82 | 1009.4 |
| 20260510063554 | 22 | 0 | 0.0 | 3.2 | 0.00 | 0.00 | 0.00 | 81 | 1009.4 |
| 20260510063103 | 22 | 0 | 0.0 | 4.8 | 0.00 | 0.00 | 0.00 | 81 | 1009.3 |
| 20260510062554 | 22 | 0 | 0.0 | 6.4 | 0.00 | 0.00 | 0.00 | 81 | 1009.2 |
| 20260510062054 | 22 | 55 | 0.0 | 6.4 | 0.00 | 0.00 | 0.00 | 80 | 1008.9 |
| 20260510061554 | 22 | 51 | 0.0 | 4.8 | 0.00 | 0.00 | 0.00 | 80 | 1008.9 |
| 20260510061055 | 22 | 232 | 0.0 | 4.8 | 0.00 | 0.00 | 0.00 | 80 | 1009.0 |
| 20260510060555 | 22 | 0 | 1.6 | 4.8 | 0.00 | 0.00 | 0.00 | 79 | 1008.9 |
| 20260510060058 | 22 | 52 | 1.6 | 4.8 | 0.00 | 0.00 | 0.00 | 79 | 1008.8 |
| 20260510055553 | 23 | 0 | 0.0 | 4.8 | 0.00 | 0.00 | 0.00 | 79 | 1008.8 |
| 20260510055055 | 22 | 0 | 0.0 | 6.4 | 0.00 | 0.00 | 0.00 | 79 | 1008.9 |
| 20260510054557 | 22 | 69 | 0.0 | 6.4 | 0.00 | 0.00 | 0.00 | 79 | 1008.8 |
| 20260510054054 | 22 | 0 | 0.0 | 4.8 | 0.00 | 0.00 | 0.00 | 79 | 1008.5 |
| 20260510053555 | 22 | 0 | 0.0 | 3.2 | 0.00 | 0.00 | 0.00 | 78 | 1008.5 |
| 20260510053057 | 22 | 0 | 0.0 | 3.2 | 0.00 | 0.00 | 0.00 | 78 | 1008.5 |
| 20260510052554 | 22 | 207 | 0.0 | 3.2 | 0.00 | 0.00 | 0.00 | 77 | 1008.6 |
| 20260510052054 | 22 | 0 | 0.0 | 3.2 | 0.00 | 0.00 | 0.00 | 77 | 1008.7 |
| 20260510051603 | 22 | 95 | 0.0 | 6.4 | 0.00 | 0.00 | 0.00 | 76 | 1008.6 |
| 20260510051055 | 22 | 0 | 0.0 | 6.4 | 0.00 | 0.00 | 0.00 | 75 | 1008.6 |
| 20260510050554 | 22 | 57 | 0.0 | 6.4 | 0.00 | 0.00 | 0.00 | 75 | 1008.6 |
| 20260510050056 | 22 | 116 | 0.0 | 4.8 | 0.00 | 0.00 | 0.00 | 75 | 1008.5 |
| 20260510045554 | 22 | 61 | 0.0 | 3.2 | 0.00 | 0.00 | 0.00 | 74 | 1008.6 |
| 20260510045054 | 22 | 0 | 0.0 | 3.2 | 0.00 | 0.00 | 0.00 | 74 | 1008.6 |
| 20260510044556 | 22 | 0 | 0.0 | 1.6 | 0.00 | 0.00 | 0.00 | 73 | 1008.8 |
| 20260510044055 | 22 | 0 | 0.0 | 3.2 | 0.00 | 0.00 | 0.00 | 72 | 1008.9 |
| 20260510043555 | 22 | 0 | 0.0 | 3.2 | 0.00 | 0.00 | 0.00 | 72 | 1008.7 |
| 20260510043103 | 22 | 0 | 0.0 | 3.2 | 0.00 | 0.00 | 0.00 | 71 | 1008.7 |
| 20260510042556 | 22 | 0 | 0.0 | 1.6 | 0.00 | 0.00 | 0.00 | 71 | 1008.8 |
| 20260510042054 | 22 | 0 | 0.0 | 0.0 | 0.00 | 0.00 | 0.00 | 71 | 1008.9 |
| 20260510041610 | 22 | 0 | 0.0 | 0.0 | 0.00 | 0.00 | 0.00 | 71 | 1008.9 |
| 20260510041057 | 22 | 0 | 0.0 | 1.6 | 0.00 | 0.00 | 0.00 | 71 | 1008.7 |
| 20260510040555 | 22 | 0 | 0.0 | 1.6 | 0.00 | 0.00 | 0.00 | 70 | 1008.9 |
| 20260510040057 | 22 | 0 | 0.0 | 1.6 | 0.00 | 0.00 | 0.00 | 70 | 1009.0 |
| 20260510035554 | 22 | 0 | 0.0 | 0.0 | 0.00 | 0.00 | 0.00 | 71 | 1009.0 |
| 20260510035054 | 22 | 0 | 0.0 | 0.0 | 0.00 | 0.00 | 0.00 | 70 | 1009.0 |
| 20260510034555 | 22 | 0 | 0.0 | 0.0 | 0.00 | 0.00 | 0.00 | 70 | 1009.0 |
| 20260510034055 | 22 | 0 | 0.0 | 0.0 | 0.00 | 0.00 | 0.00 | 70 | 1009.0 |
| 20260510033554 | 23 | 0 | 0.0 | 0.0 | 0.00 | 0.00 | 0.00 | 69 | 1008.9 |
| 20260510033057 | 23 | 0 | 0.0 | 1.6 | 0.00 | 0.00 | 0.00 | 69 | 1009.0 |
| 20260510032554 | 23 | 0 | 0.0 | 1.6 | 0.00 | 0.00 | 0.00 | 69 | 1008.9 |
| 20260510032058 | 23 | 0 | 0.0 | 0.0 | 0.00 | 0.00 | 0.00 | 69 | 1009.0 |
| 20260510031600 | 23 | 0 | 0.0 | 0.0 | 0.00 | 0.00 | 0.00 | 70 | 1009.0 |
| 20260510031054 | 23 | 0 | 0.0 | 0.0 | 0.00 | 0.00 | 0.00 | 69 | 1008.9 |
| 20260510030554 | 23 | 0 | 0.0 | 0.0 | 0.00 | 0.00 | 0.00 | 69 | 1008.8 |
| 20260510030058 | 23 | 0 | 0.0 | 0.0 | 0.00 | 0.00 | 0.00 | 68 | 1008.8 |
| 20260510025555 | 24 | 0 | 0.0 | 0.0 | 0.00 | 0.00 | 0.00 | 68 | 1008.7 |
| 20260510025059 | 24 | 0 | 0.0 | 0.0 | 0.00 | 0.00 | 0.00 | 67 | 1008.8 |
| 20260510024601 | 25 | 0 | 0.0 | 1.6 | 0.00 | 0.00 | 0.00 | 65 | 1008.8 |
| 20260510024054 | 25 | 0 | 0.0 | 1.6 | 0.00 | 0.00 | 0.00 | 64 | 1008.8 |
| 20260510023555 | 25 | 0 | 0.0 | 1.6 | 0.00 | 0.00 | 0.00 | 64 | 1008.6 |
| 20260510023053 | 25 | 0 | 0.0 | 1.6 | 0.00 | 0.00 | 0.00 | 63 | 1008.6 |
| 20260510022559 | 25 | 0 | 0.0 | 1.6 | 0.00 | 0.00 | 0.00 | 63 | 1008.6 |
| 20260510022053 | 25 | 0 | 0.0 | 1.6 | 0.00 | 0.00 | 0.00 | 63 | 1008.4 |
| 20260510021553 | 26 | 0 | 0.0 | 1.6 | 0.00 | 0.00 | 0.00 | 62 | 1008.3 |
| 20260510021059 | 26 | 136 | 0.0 | 6.4 | 0.00 | 0.00 | 0.00 | 62 | 1008.3 |
| 20260510020555 | 26 | 0 | 0.0 | 6.4 | 0.00 | 0.00 | 0.00 | 62 | 1008.2 |
| 20260510020056 | 26 | 0 | 0.0 | 3.2 | 0.00 | 0.00 | 0.00 | 61 | 1008.1 |
| 20260510015555 | 26 | 0 | 0.0 | 3.2 | 0.00 | 0.00 | 0.00 | 62 | 1008.1 |
| 20260510015054 | 26 | 0 | 0.0 | 3.2 | 0.00 | 0.00 | 0.00 | 60 | 1008.1 |
| 20260510014554 | 27 | 0 | 0.0 | 3.2 | 0.00 | 0.00 | 0.00 | 60 | 1007.9 |
| 20260510014055 | 27 | 0 | 0.0 | 3.2 | 0.00 | 0.00 | 0.00 | 60 | 1007.8 |
| 20260510013555 | 27 | 0 | 0.0 | 3.2 | 0.00 | 0.00 | 0.00 | 59 | 1007.7 |
| 20260510013105 | 27 | 0 | 0.0 | 3.2 | 0.00 | 0.00 | 0.00 | 59 | 1007.7 |
| 20260510012554 | 27 | 79 | 0.0 | 4.8 | 0.00 | 0.00 | 0.00 | 59 | 1007.7 |
| 20260510012054 | 28 | 271 | 0.0 | 4.8 | 0.00 | 0.00 | 0.00 | 59 | 1007.8 |
| 20260510011600 | 28 | 132 | 0.0 | 4.8 | 0.00 | 0.00 | 0.00 | 59 | 1007.6 |
| 20260510011056 | 28 | 0 | 0.0 | 4.8 | 0.00 | 0.00 | 0.00 | 59 | 1007.5 |
| 20260510010557 | 28 | 65 | 0.0 | 3.2 | 0.00 | 0.00 | 0.00 | 59 | 1007.5 |
| 20260510010110 | 28 | 0 | 0.0 | 1.6 | 0.00 | 0.00 | 0.00 | 58 | 1007.5 |
| 20260510005555 | 28 | 0 | 0.0 | 1.6 | 0.00 | 0.00 | 0.00 | 57 | 1007.5 |
| 20260510005054 | 28 | 0 | 0.0 | 3.2 | 0.00 | 0.00 | 0.00 | 56 | 1007.5 |
| 20260510004600 | 29 | 0 | 0.0 | 3.2 | 0.00 | 0.00 | 0.00 | 56 | 1007.4 |
| 20260510004054 | 29 | 0 | 0.0 | 3.2 | 0.00 | 0.00 | 0.00 | 56 | 1007.3 |
| 20260510003555 | 29 | 0 | 0.0 | 6.4 | 0.00 | 0.00 | 0.00 | 56 | 1007.4 |
| 20260510003059 | 30 | 171 | 1.6 | 6.4 | 0.00 | 0.00 | 0.00 | 54 | 1007.4 |
| 20260510002558 | 30 | 0 | 0.0 | 6.4 | 0.00 | 0.00 | 0.00 | 55 | 1007.4 |
| 20260510002054 | 29 | 0 | 0.0 | 4.8 | 0.00 | 0.00 | 0.00 | 55 | 1007.4 |
| 20260510001555 | 30 | 0 | 0.0 | 4.8 | 0.00 | 0.00 | 0.00 | 55 | 1007.4 |
| 20260510001052 | 30 | 0 | 0.0 | 4.8 | 0.00 | 0.00 | 0.00 | 53 | 1007.4 |
| 20260510000553 | 30 | 192 | 0.0 | 1.6 | 0.00 | 0.00 | 0.00 | 54 | 1007.3 |
| 20260510000108 | 29 | 0 | 0.0 | 3.2 | 0.00 | 0.00 | 0.00 | 55 | 1007.4 |
| 20260509235552 | 29 | 0 | 0.0 | 3.2 | 0.00 | 0.00 | 0.00 | 56 | 1007.4 |
| 20260509235052 | 29 | 0 | 0.0 | 1.6 | 0.00 | 0.00 | 0.00 | 54 | 1007.2 |
| 20260509234604 | 30 | 0 | 0.0 | 1.6 | 0.00 | 0.00 | 0.00 | 53 | 1007.3 |
| 20260509234055 | 30 | 0 | 0.0 | 3.2 | 0.00 | 0.00 | 0.00 | 53 | 1007.2 |
| 20260509233556 | 30 | 0 | 0.0 | 3.2 | 0.00 | 0.00 | 0.00 | 53 | 1007.3 |
| 20260509233053 | 30 | 244 | 0.0 | 3.2 | 0.00 | 0.00 | 0.00 | 51 | 1007.3 |
| 20260509232555 | 30 | 0 | 0.0 | 3.2 | 0.00 | 0.00 | 0.00 | 51 | 1007.3 |
| 20260509232055 | 30 | 0 | 0.0 | 3.2 | 0.00 | 0.00 | 0.00 | 52 | 1007.3 |
| 20260509231557 | 30 | 0 | 0.0 | 1.6 | 0.00 | 0.00 | 0.00 | 51 | 1007.4 |
| 20260509231054 | 30 | 0 | 0.0 | 1.6 | 0.00 | 0.00 | 0.00 | 50 | 1007.3 |
| 20260509230554 | 30 | 0 | 0.0 | 1.6 | 0.00 | 0.00 | 0.00 | 50 | 1007.3 |
| 20260509225555 | 30 | 0 | 0.0 | 3.2 | 0.00 | 0.00 | 0.00 | 47 | 1007.5 |
| 20260509225054 | 30 | 0 | 0.0 | 3.2 | 0.00 | 0.00 | 0.00 | 51 | 1007.3 |
| 20260509224601 | 30 | 0 | 0.0 | 3.2 | 0.00 | 0.00 | 0.00 | 50 | 1007.4 |
| 20260509224055 | 30 | 0 | 0.0 | 1.6 | 0.00 | 0.00 | 0.00 | 49 | 1007.4 |
| 20260509223552 | 30 | 0 | 0.0 | 1.6 | 0.00 | 0.00 | 0.00 | 50 | 1007.4 |
| 20260509223054 | 30 | 0 | 0.0 | 3.2 | 0.00 | 0.00 | 0.00 | 51 | 1007.4 |
| 20260509222552 | 30 | 0 | 0.0 | 3.2 | 0.00 | 0.00 | 0.00 | 50 | 1007.5 |
| 20260509222052 | 30 | 0 | 0.0 | 3.2 | 0.00 | 0.00 | 0.00 | 49 | 1007.4 |
| 20260509221612 | 31 | 0 | 0.0 | 1.6 | 0.00 | 0.00 | 0.00 | 51 | 1007.4 |
| 20260509221055 | 31 | 232 | 0.0 | 3.2 | 0.00 | 0.00 | 0.00 | 51 | 1007.4 |
| 20260509220555 | 30 | 0 | 0.0 | 3.2 | 0.00 | 0.00 | 0.00 | 49 | 1007.5 |
| 20260509220105 | 30 | 0 | 0.0 | 3.2 | 0.00 | 0.00 | 0.00 | 50 | 1007.5 |
| 20260509215555 | 31 | 0 | 0.0 | 3.2 | 0.00 | 0.00 | 0.00 | 50 | 1007.5 |
| 20260509215055 | 31 | 0 | 0.0 | 3.2 | 0.00 | 0.00 | 0.00 | 50 | 1007.5 |
| 20260509214602 | 31 | 0 | 0.0 | 3.2 | 0.00 | 0.00 | 0.00 | 48 | 1007.6 |
| 20260509214055 | 31 | 0 | 0.0 | 3.2 | 0.00 | 0.00 | 0.00 | 49 | 1007.7 |
| 20260509213554 | 31 | 0 | 0.0 | 4.8 | 0.00 | 0.00 | 0.00 | 48 | 1007.7 |
| 20260509213102 | 31 | 320 | 0.0 | 4.8 | 0.00 | 0.00 | 0.00 | 46 | 1007.9 |
| 20260509212554 | 31 | 0 | 0.0 | 6.4 | 0.00 | 0.00 | 0.00 | 48 | 1007.7 |
| 20260509212057 | 31 | 0 | 0.0 | 6.4 | 0.00 | 0.00 | 0.00 | 45 | 1008.0 |
| 20260509211557 | 31 | 0 | 0.0 | 6.4 | 0.00 | 0.00 | 0.00 | 46 | 1008.1 |
| 20260509211055 | 31 | 61 | 1.6 | 6.4 | 0.00 | 0.00 | 0.00 | 46 | 1008.1 |
| 20260509210553 | 31 | 179 | 0.0 | 4.8 | 0.00 | 0.00 | 0.00 | 47 | 1008.2 |
| 20260509210104 | 31 | 198 | 0.0 | 3.2 | 0.00 | 0.00 | 0.00 | 47 | 1008.2 |
| 20260509205554 | 32 | 0 | 0.0 | 3.2 | 0.00 | 0.00 | 0.00 | 52 | 1008.3 |